This demonstration page uses our WeatherBlox Daily Observations layout. Learn more.

Left ArrowRight Arrow

38.88101, -77.10428

Hourly Observations for June 16, 2021

Temp ( °F °C ) Dew Point ( °F °C ) Humidity (%) Winds ( mph kmh ) Pressure ( in mb ) Visibility ( mi km ) Precip ( " mm )
12:52 am 00:52 Mostly Cloudy 71 21.7 55 12.8 57 57 NW 8 13 29.86 1011 10 16 N/A
1:52 am 01:52 Mostly Cloudy 71 21.7 55 12.8 57 57 NW 14 22 29.86 1011 10 16 N/A
2:52 am 02:52 Partly Cloudy 69 20.6 54 12.2 59 59 WNW 12 19 29.86 1011 10 16 N/A
3:52 am 03:52 Mostly Cloudy 69 20.6 53 11.7 57 57 NW 14 22 29.86 1011 10 16 N/A
4:52 am 04:52 Partly Cloudy 67 19.4 52 11.1 59 59 NW 12 19 29.88 1012 10 16 N/A
5:52 am 05:52 Mostly Sunny 66 18.9 52 11.1 61 61 NW 12 19 29.89 1012 10 16 N/A
6:52 am 06:52 Mostly Cloudy 66 18.9 51 10.6 59 59 NNW 12 19 29.91 1013 10 16 N/A
7:52 am 07:52 Partly Cloudy 68 20 50 10 53 53 NNW 13 20 29.92 1013 10 16 N/A
8:52 am 08:52 Mostly Cloudy 68 20 49 9.4 51 51 NW 13 20 29.94 1014 10 16 N/A
9:52 am 09:52 Partly Cloudy 72 22.2 50 10 46 46 WNW 8 13 29.94 1014 10 16 N/A
10:52 am 10:52 Mostly Sunny 75 23.9 46 7.8 36 36 NNW 13 20 29.93 1014 10 16 N/A
11:52 am 11:52 Mostly Sunny 76 24.4 44 6.7 32 32 W 13 20 29.93 1014 10 16 N/A
12:52 pm 12:52 Mostly Sunny 77 25 42 5.6 29 29 NW 14 22 29.93 1014 10 16 N/A
1:52 pm 13:52 Mostly Sunny 79 26.1 47 8.3 32 32 NNW 12 19 29.93 1014 10 16 N/A
2:52 pm 14:52 Mostly Sunny 79 26.1 45 7.2 30 30 NNW 10 17 29.92 1013 10 16 N/A
3:52 pm 15:52 Sunny 80 26.7 46 7.8 30 30 WNW 12 19 29.92 1013 10 16 N/A
4:52 pm 16:52 Partly Cloudy 80 26.7 46 7.8 30 30 NNW 13 20 29.92 1013 10 16 N/A
5:52 pm 17:52 Mostly Sunny 79 26.1 47 8.3 32 32 NNW 10 17 29.92 1013 10 16 N/A
6:52 pm 18:52 Mostly Sunny 78 25.6 43 6.1 29 29 NW 12 19 29.92 1013 10 16 N/A
7:52 pm 19:52 Partly Cloudy 76 24.4 44 6.7 32 32 NNW 9 15 29.93 1013 10 16 N/A
8:52 pm 20:52 Mostly Cloudy 75 23.9 41 5 29 29 NNW 10 17 29.94 1014 10 16 N/A
9:52 pm 21:52 Partly Cloudy 73 22.8 42 5.6 33 33 NW 10 17 29.96 1015 10 16 N/A
10:52 pm 22:52 Partly Cloudy 71 21.7 43 6.1 36 36 NNW 8 13 29.97 1015 10 16 N/A
11:52 pm 23:52 Partly Cloudy 69 20.6 45 7.2 42 42 NNW 9 15 29.98 1015 10 16 N/A

Powered by AerisWeather